Location: Unspecified
(0.0000°N, 0.0000°E)
Time: 00:21:06
(UTC+02:00)

JASON 3 - Pass Details

Date: 03 October 2021
Orbit: 1332 x 1343 km, 66.0° (Epoch: 18 October)

Event Time Altitude Azimuth Distance (km) Brightness Sun altitude
Rises 20:12:49 0° 331° (NNW) 4,344 ? -6.0°
Reaches altitude 10° 20:15:42 10° 327° (NNW) 3,372 ? -6.7°
Maximum altitude 20:23:41 58° 250° (WSW) 1,529 ? -8.7°
Drops below altitude 10° 20:31:41 10° 173° (S) 3,373 ? -10.7°
Sets 20:34:35 0° 168° (SSE) 4,346 ? -11.4°
